This demonstration page uses our WeatherBlox Daily Observations layout. Learn more.

Left ArrowRight Arrow

41.55636, -103.73856

Hourly Observations for February 28, 2018

Temp ( °F °C ) Dew Point ( °F °C ) Humidity (%) Winds ( mph kmh ) Pressure ( in mb ) Visibility ( mi km ) Precip ( " mm )
12:53 am 00:53 Clear 32 undefined 24 -4.4 73 73 N N/A 29.84 1010 10 16 N/A
1:53 am 01:53 Clear 30 -1.1 24 -4.4 79 79 NNW 7 11 29.83 1010 10 16 N/A
2:53 am 02:53 Mostly Clear 30 -1.1 25 -3.9 82 82 N N/A 29.81 1010 10 16 N/A
3:53 am 03:53 Clear 30 -1.1 23 -5 75 75 NNW 8 13 29.81 1010 10 16 N/A
4:53 am 04:53 Mostly Cloudy 29 -1.7 23 -5 78 78 WNW 5 7 29.83 1010 10 16 N/A
5:53 am 05:53 Mostly Cloudy 31 -0.6 24 -4.4 76 76 NNW 8 13 29.87 1012 10 16 N/A
6:53 am 06:53 Sunny 28 -2.2 23 -5 81 81 NW 8 13 29.93 1014 10 16 N/A
7:53 am 07:53 Sunny 32 undefined 25 -3.9 75 75 NNW 6 9 29.96 1015 10 16 N/A
8:53 am 08:53 Sunny 34 1.1 23 -5 64 64 N 5 7 29.98 1015 10 16 N/A
9:53 am 09:53 Sunny 38 3.3 23 -5 55 55 NW 10 17 29.98 1015 10 16 N/A
10:53 am 10:53 Sunny 41 5 22 -5.6 47 47 N 6 9 29.98 1015 10 16 N/A
11:53 am 11:53 Sunny 42 5.6 19 -7.2 40 40 NNW 8 13 29.97 1015 10 16 N/A
12:53 pm 12:53 Sunny 44 6.7 17 -8.3 34 34 NW 9 15 29.94 1014 10 16 N/A
1:53 pm 13:53 Sunny 44 6.7 17 -8.3 34 34 N 12 19 29.93 1014 10 16 N/A
2:53 pm 14:53 Sunny 44 6.7 18 -7.8 35 35 N 7 11 29.94 1014 10 16 N/A
3:53 pm 15:53 Sunny 43 6.1 18 -7.8 37 37 N 12 19 29.96 1014 10 16 N/A
4:53 pm 16:53 Sunny 41 5 18 -7.8 39 39 N 10 17 30.00 1016 10 16 N/A
5:53 pm 17:53 Clear 33 0.6 19 -7.2 56 56 NNE 8 13 30.04 1017 10 16 N/A
6:53 pm 18:53 Clear 30 -1.1 21 -6.1 69 69 E 6 9 30.10 1019 10 16 N/A
7:53 pm 19:53 Clear 28 -2.2 21 -6.1 75 75 ESE 7 11 30.11 1020 10 16 N/A
8:53 pm 20:53 Clear 26 -3.3 20 -6.7 78 78 SE 3 6 30.14 1021 10 16 N/A
9:53 pm 21:53 Clear 25 -3.9 21 -6.1 85 85 ENE 3 6 30.14 1021 10 16 N/A
10:53 pm 22:53 Clear 24 -4.4 20 -6.7 84 84 E 3 6 30.14 1021 10 16 N/A
11:53 pm 23:53 Clear 23 -5 19 -7.2 85 85 N N/A 30.14 1021 10 16 N/A

Powered by AerisWeather